Hoquiam, WA

12:07 PM PDT on July 22, 2017 (GMT -0700)
Bowerman

Weather History for KHQM - September, 2013

Change the Weather History Date:

Sunday, September 8, 2013

  Actual Average Record
Temperature  
Mean Temperature 61 °F 60 °F  
Max Temperature 70 °F 68 °F 86 °F (1997)
Min Temperature 52 °F 52 °F 42 °F (1960)
Degree Days  
Heating Degree Days 4 5  
Month to date heating degree days 15 40  
Cooling Degree Days 0 0  
Month to date cooling degree days 0 0  
Year to date cooling degree days 13 16  
Growing Degree Days 10 (Base 50)    
Moisture  
Dew Point 57 °F    
Average Humidity 87    
Maximum Humidity 100    
Minimum Humidity 73    
Precipitation  
Precipitation 0.00 in 0.07 in 1.31 in (1979)
Month to date precipitation 0.31 0.52  
Year to date precipitation 34.65 38.13  
Sea Level Pressure  
Sea Level Pressure 30.10 in    
Wind  
Wind Speed 6 mph (WSW)    
Max Wind Speed 15 mph    
Max Gust Speed 17 mph    
Visibility 6 miles    
Events Fog    
T = Trace of Precipitation, MM = Missing Value Source: NWS Daily Summary

Daily Weather History Graph

Daily Weather History Graph

Search for Another Location

Airport or City:

Trip Planner

Search our weather history database for the weather conditions in past years. The results will help you decide how hot, cold, wet, or windy it might be!

Date:

Astronomy

Sep. 08, 2013 Rise Set
Actual Time 6:44 AM PDT 7:40 PM PDT
Civil Twilight 6:13 AM PDT 8:11 PM PDT
Nautical Twilight 5:36 AM PDT 8:48 PM PDT
Astronomical Twilight 4:57 AM PDT 9:27 PM PDT
Moon 10:25 AM PDT (9/8) 9:02 PM PDT (9/8)
Length of Visible Light 13h 57m
Length of Day
12h 56m
Waxing Crescent, 12% of the Moon is Illuminated
Sep 8
Waxing Crescent
Sep 12
First Quarter
Sep 19
Full
Sep 26
Last Quarter
Oct 4
New

Hourly Weather History & Observations

Time (PDT) Temp. Dew Point Humidity Pressure Visibility Wind Dir Wind Speed Gust Speed Precip Events Conditions
12:53 AM 57.9 °F 57.0 °F 97% 30.08 in 10.0 mi Calm Calm - N/A   Clear
1:53 AM 57.0 °F 55.9 °F 96% 30.08 in 10.0 mi Calm Calm - N/A   Clear
2:53 AM 57.0 °F 55.9 °F 96% 30.09 in 10.0 mi Calm Calm - N/A   Clear
3:53 AM 55.9 °F 55.0 °F 97% 30.09 in 10.0 mi Calm Calm - N/A   Clear
4:53 AM 55.9 °F 54.0 °F 93% 30.09 in 10.0 mi NE 3.5 mph - N/A   Clear
4:59 AM 55.4 °F 55.4 °F 100% 30.09 in 2.5 mi Calm Calm - N/A   Partly Cloudy
5:04 AM 55.4 °F 53.6 °F 94% 30.08 in 1.2 mi Calm Calm - N/A   Mostly Cloudy
5:12 AM 53.6 °F 53.6 °F 100% 30.08 in 0.5 mi ENE 3.5 mph - N/A Fog Fog
5:19 AM 53.6 °F 53.6 °F 100% 30.09 in 0.2 mi Calm Calm - N/A Fog Fog
5:41 AM 53.6 °F 53.6 °F 100% 30.09 in 1.0 mi ENE 3.5 mph - N/A   Mist
5:48 AM 53.6 °F 53.6 °F 100% 30.09 in 10.0 mi ENE 3.5 mph - N/A   Scattered Clouds
5:53 AM 52.0 °F 52.0 °F 100% 30.09 in 10.0 mi Calm Calm - N/A   Scattered Clouds
6:51 AM 53.6 °F 53.6 °F 100% 30.10 in 0.8 mi NE 4.6 mph - N/A   Mist
6:53 AM 54.0 °F 54.0 °F 100% 30.11 in 0.2 mi NE 4.6 mph - N/A Fog Fog
7:12 AM 53.6 °F 53.6 °F 100% 30.10 in 1.0 mi ENE 3.5 mph - N/A   Overcast
7:31 AM 53.6 °F 53.6 °F 100% 30.10 in 3.0 mi NE 4.6 mph - N/A   Mostly Cloudy
7:42 AM 53.6 °F 53.6 °F 100% 30.10 in 10.0 mi ENE 3.5 mph - N/A   Scattered Clouds
7:48 AM 55.4 °F 55.4 °F 100% 30.10 in 2.0 mi ENE 5.8 mph - N/A   Mostly Cloudy
7:50 AM 55.4 °F 55.4 °F 100% 30.10 in 0.8 mi ENE 4.6 mph - N/A   Mist
7:53 AM 55.0 °F 55.0 °F 100% 30.12 in 0.2 mi ENE 3.5 mph - N/A Fog Fog
8:12 AM 55.4 °F 55.4 °F 100% 30.11 in 0.5 mi Calm Calm - N/A Fog Fog
8:27 AM 55.4 °F 55.4 °F 100% 30.11 in 2.0 mi Calm Calm - N/A   Overcast
8:35 AM 55.4 °F 55.4 °F 100% 30.11 in 8.0 mi Calm Calm - N/A   Overcast
8:53 AM 57.9 °F 57.0 °F 97% 30.12 in 6.0 mi Calm Calm - N/A   Overcast
9:00 AM 57.2 °F 57.2 °F 100% 30.11 in 1.8 mi Calm Calm - N/A   Overcast
9:12 AM 57.2 °F 57.2 °F 100% 30.12 in 0.2 mi Calm Calm - N/A Fog Fog
9:53 AM 59.0 °F 59.0 °F 100% 30.14 in 0.2 mi SW 4.6 mph - N/A Fog Fog
10:13 AM 60.8 °F 60.8 °F 100% 30.12 in 1.0 mi WSW 3.5 mph - N/A   Overcast
10:24 AM 60.8 °F 60.8 °F 100% 30.12 in 0.5 mi SSW 3.5 mph - N/A Fog Fog
10:53 AM 61.0 °F 60.1 °F 97% 30.13 in 0.5 mi SSW 4.6 mph - N/A Fog Fog
11:14 AM 60.8 °F 60.8 °F 100% 30.12 in 2.0 mi WSW 5.8 mph - N/A   Overcast
11:23 AM 62.6 °F 60.8 °F 94% 30.12 in 7.0 mi SW 8.1 mph - N/A   Overcast
11:44 AM 64.4 °F 60.8 °F 88% 30.12 in 10.0 mi SW 9.2 mph - N/A   Scattered Clouds
11:53 AM 66.9 °F 62.1 °F 84% 30.13 in 10.0 mi SW 11.5 mph - N/A   Partly Cloudy
12:53 PM 68.0 °F 62.1 °F 81% 30.13 in 10.0 mi SW 12.7 mph - N/A   Clear
1:53 PM 69.1 °F 61.0 °F 75% 30.12 in 10.0 mi WSW 11.5 mph - N/A   Clear
2:53 PM 69.1 °F 61.0 °F 75% 30.11 in 10.0 mi WSW 9.2 mph - N/A   Clear
3:53 PM 68.0 °F 61.0 °F 78% 30.10 in 10.0 mi WSW 11.5 mph - N/A   Clear
4:53 PM 66.0 °F 60.1 °F 81% 30.10 in 10.0 mi West 11.5 mph - N/A   Scattered Clouds
5:04 PM 64.4 °F 59.0 °F 83% 30.09 in 10.0 mi West 10.4 mph - N/A   Mostly Cloudy
5:53 PM 64.0 °F 59.0 °F 84% 30.09 in 10.0 mi WSW 9.2 mph - N/A   Overcast
6:19 PM 62.6 °F 59.0 °F 88% 30.07 in 10.0 mi West 5.8 mph - N/A   Overcast
6:53 PM 62.1 °F 59.0 °F 90% 30.08 in 10.0 mi West 10.4 mph - N/A   Overcast
7:53 PM 61.0 °F 59.0 °F 93% 30.08 in 10.0 mi West 9.2 mph - N/A   Overcast
8:53 PM 61.0 °F 57.9 °F 90% 30.09 in 10.0 mi WNW 6.9 mph - N/A   Overcast
9:53 PM 61.0 °F 57.9 °F 90% 30.09 in 10.0 mi Variable 3.5 mph - N/A   Overcast
10:53 PM 61.0 °F 57.9 °F 90% 30.09 in 10.0 mi West 5.8 mph - N/A   Overcast
11:53 PM 60.1 °F 57.0 °F 90% 30.08 in 10.0 mi Calm Calm - N/A   Overcast